Find BRO-18

NORAD ID: 64550 Int'l Des: 2025-135 Owner: UNSEEN Country: F operational
LEOCIRCULARRETROGRADESSO

リアルタイム位置

3D地球を読み込み中...

BRO-18について

説明を読み込み中...

次回通過

Passes for default location (London). Set your location on the main map for personalized predictions.

高度履歴

Loading altitude history...

軌道要素

1 64550U 25135Y 26104.86120285 .00002702 00000-0 12345-3 0 9990
2 64550 97.4547 220.4409 0002631 100.7589 259.3943 15.21431224 45246
Epoch: Apr 14, 2026 • Age: 5 hours

現在のステータス

高度 513.3 km
速度 7.62 km/s
衛星直下点 82.40°N, 112.29°W
打ち上げ日 Jun 23, 2025
運用期間 0.8 years
タイプ other

技術仕様

分類 Payload
質量 15.00 kg
乾燥質量 15.00 kg
総質量 15.00 kg
長さ 0.40 m
直径 0.20 m
スパン 0.40 m
形状 Box
製造者 GOMSP
バスタイプ Cubesat 8U
フェーズステータス In Orbit
所有者/国 UNSEEN/F

Most Searched